This demonstration page uses our WeatherBlox Daily Observations layout. Learn more.

Left ArrowRight Arrow

40.92945, -100.16068

Hourly Observations for May 20, 2015

Temp ( °F °C ) Dew Point ( °F °C ) Humidity (%) Winds ( mph kmh ) Pressure ( in mb ) Visibility ( mi km ) Precip ( " mm )
12:15 am 00:15 Cloudy with Mist and Fog 41 5.2 40 4.4 95 95 NE 8 13 30.3 1026 4 6.43736 N/A
12:35 am 00:35 Cloudy with Drizzle 41 5.2 40 4.3 94 94 NE 8 13 30.3 1026 4 6.43736 N/A
12:55 am 00:55 Cloudy with Mist and Fog 41 5.1 40 4.2 94 94 NE 10 17 30.3 1026 4 6.43736 N/A
1:15 am 01:15 Cloudy with Mist and Fog 41 5.1 40 4.3 95 95 NE 10 17 30.3 1026 4 6.43736 N/A
1:35 am 01:35 Cloudy with Mist and Fog 41 5.2 40 4.5 95 95 NE 9 15 30.27 1025 5 8.0467 N/A
1:55 am 01:55 Cloudy with Mist and Fog 41 5.1 40 4.3 95 95 NE 7 11 30.27 1025 5 8.0467 N/A
2:15 am 02:15 Cloudy with Mist and Fog 41 5.1 40 4.3 95 95 NNE 6 9 30.27 1025 4 6.43736 N/A
2:35 am 02:35 Cloudy with Mist and Fog 41 5.1 40 4.3 95 95 NNE 8 13 30.27 1025 4 6.43736 N/A
2:55 am 02:55 Cloudy with Mist and Fog 41 5.1 40 4.3 95 95 NNE 8 13 30.27 1025 4 6.43736 N/A
3:15 am 03:15 Cloudy with Mist and Fog 41 5.1 40 4.4 95 95 NNE 7 11 30.27 1025 4 6.43736 N/A
3:35 am 03:35 Cloudy with Mist and Fog 41 5.2 40 4.5 95 95 NNE 7 11 30.27 1025 3 4.82802 N/A
3:55 am 03:55 Cloudy with Mist and Fog 41 5.2 40 4.5 95 95 NNE 9 15 30.27 1025 3 4.82802 N/A
4:15 am 04:15 Cloudy with Mist and Fog 41 5.2 40 4.5 95 95 NNE 7 11 30.27 1025 3 4.82802 N/A
4:35 am 04:35 Cloudy with Mist and Fog 42 5.3 40 4.6 95 95 NNE 7 11 30.27 1025 3 4.82802 0.01 0.254
4:55 am 04:55 Cloudy with Mist and Fog 42 5.4 40 4.7 95 95 N 9 15 30.27 1025 3 4.82802 0.01 0.254
5:15 am 05:15 Cloudy with Mist and Fog 41 5.2 40 4.5 95 95 N 9 15 30.27 1025 4 6.43736 N/A
5:35 am 05:35 Cloudy with Mist and Fog 42 5.5 40 4.7 95 95 N 8 13 30.24 1024 4 6.43736 N/A
5:55 am 05:55 Cloudy with Mist and Fog 42 5.5 40 4.7 95 95 N 9 15 30.24 1024 4 6.43736 N/A
6:15 am 06:15 Cloudy with Mist and Fog 42 5.5 41 4.8 95 95 NNE 10 17 30.24 1024 3 4.82802 N/A
6:35 am 06:35 Cloudy with Mist and Fog 42 5.5 40 4.7 95 95 NNE 10 17 30.24 1024 2.5 4.02335 N/A
6:55 am 06:55 Cloudy with Mist and Fog 42 5.5 41 4.8 95 95 NNE 8 13 30.24 1024 3 4.82802 N/A
7:15 am 07:15 Cloudy with Mist and Fog 42 5.5 41 4.8 95 95 NNE 9 15 30.27 1025 4 6.43736 N/A
7:35 am 07:35 Cloudy with Mist and Fog 42 5.7 41 5 95 95 NNE 10 17 30.27 1025 5 8.0467 N/A
7:55 am 07:55 Cloudy with Mist and Fog 42 5.7 41 5 95 95 N 12 19 30.27 1025 4 6.43736 N/A
8:15 am 08:15 Cloudy with Mist and Fog 42 5.7 41 5 95 95 N 10 17 30.27 1025 5 8.0467 N/A
8:35 am 08:35 Cloudy 43 6 41 5.2 95 95 NNE 13 20 30.27 1025 10 16.0934 N/A
8:55 am 08:55 Cloudy 43 6.1 42 5.4 95 95 N 12 19 30.3 1026 10 16.0934 N/A
9:15 am 09:15 Cloudy 43 6.2 42 5.3 94 94 NNE 12 19 30.3 1026 10 16.0934 N/A
9:35 am 09:35 Cloudy 43 6.3 42 5.3 93 93 NNE 10 17 30.3 1026 10 16.0934 N/A
9:55 am 09:55 Cloudy 44 6.5 42 5.3 92 92 NNE 9 15 30.3 1026 10 16.0934 N/A
10:15 am 10:15 Cloudy 44 6.6 42 5.6 93 93 N 13 20 30.3 1026 10 16.0934 N/A
10:35 am 10:35 Cloudy 44 6.7 42 5.6 93 93 NNE 8 13 30.3 1026 7 11.26538 N/A
10:55 am 10:55 Cloudy 45 7.4 43 6.1 92 92 N 8 13 30.3 1026 10 16.0934 N/A
11:15 am 11:15 Cloudy 45 7.3 42 5.7 90 90 N 9 15 30.3 1026 10 16.0934 N/A
11:35 am 11:35 Cloudy 46 7.6 42 5.6 87 87 NNE 8 13 30.3 1026 10 16.0934 N/A
11:55 am 11:55 Cloudy 46 7.8 42 5.6 86 86 N 12 19 30.3 1026 10 16.0934 N/A
12:15 pm 12:15 Cloudy 46 7.7 42 5.6 87 87 N 7 11 30.33 1027 10 16.0934 N/A
12:35 pm 12:35 Cloudy 46 7.5 42 5.5 87 87 NNE 12 19 30.33 1027 10 16.0934 N/A
12:55 pm 12:55 Cloudy 46 7.8 42 5.5 86 86 N 6 9 30.33 1027 10 16.0934 N/A
1:15 pm 13:15 Cloudy 47 8.4 43 6 85 85 NNE 6 9 30.33 1027 10 16.0934 N/A
1:35 pm 13:35 Cloudy 47 8.5 42 5.7 83 83 N 3 6 30.3 1026 10 16.0934 N/A
1:55 pm 13:55 Cloudy 47 8.5 42 5.5 82 82 N 9 15 30.3 1026 10 16.0934 N/A
2:15 pm 14:15 Cloudy 49 9.2 42 5.6 78 78 N 7 11 30.3 1026 10 16.0934 N/A
2:35 pm 14:35 Cloudy 49 9.3 42 5.7 78 78 NNE 10 17 30.3 1026 10 16.0934 N/A
2:55 pm 14:55 Cloudy 52 11 44 6.7 75 75 N 8 13 30.27 1025 10 16.0934 N/A
3:15 pm 15:15 Cloudy 49 9.3 42 5.6 78 78 NNE 13 20 30.3 1026 10 16.0934 N/A
3:35 pm 15:35 Cloudy 49 9.4 43 6.2 81 81 N 13 20 30.3 1026 10 16.0934 N/A
3:55 pm 15:55 Cloudy 51 10.7 44 6.5 75 75 N 9 15 30.27 1025 10 16.0934 N/A
4:15 pm 16:15 Cloudy 51 10.8 42 5.5 70 70 N 15 24 30.27 1025 10 16.0934 N/A
4:35 pm 16:35 Cloudy 49 9.7 42 5.8 77 77 NNE 13 20 30.27 1025 10 16.0934 N/A
4:55 pm 16:55 Cloudy 51 10.5 43 6 74 74 NNE 12 19 30.27 1025 10 16.0934 N/A
5:15 pm 17:15 Cloudy 51 10.6 43 5.9 73 73 NNE 10 17 30.27 1025 10 16.0934 N/A
5:35 pm 17:35 Cloudy 50 10.1 41 5 71 71 N 14 22 30.27 1025 10 16.0934 N/A
5:55 pm 17:55 Cloudy 50 10.2 41 5 70 70 N 12 19 30.27 1025 10 16.0934 N/A
6:15 pm 18:15 Cloudy 51 10.4 42 5.7 73 73 NE 9 15 30.27 1025 10 16.0934 N/A
6:35 pm 18:35 Cloudy 49 9.6 41 5.2 74 74 NNE 12 19 30.27 1025 10 16.0934 N/A
6:55 pm 18:55 Cloudy 49 9.4 41 5 74 74 NNE 8 13 30.3 1026 10 16.0934 N/A
7:15 pm 19:15 Cloudy 49 9.5 41 5.2 75 75 NNE 10 17 30.27 1025 10 16.0934 N/A
7:35 pm 19:35 Cloudy 49 9.3 41 5.2 76 76 NNE 12 19 30.3 1026 10 16.0934 N/A
7:55 pm 19:55 Cloudy 48 9 41 5.2 77 77 NNE 7 11 30.3 1026 10 16.0934 N/A
8:15 pm 20:15 Cloudy 48 8.8 41 5.1 78 78 NNE 7 11 30.3 1026 10 16.0934 N/A
8:35 pm 20:35 Cloudy 47 8.5 41 5 79 79 NNE 7 11 30.3 1026 10 16.0934 N/A
8:55 pm 20:55 Mostly Cloudy 46 7.7 41 5 83 83 NE 6 9 30.3 1026 10 16.0934 N/A
9:15 pm 21:15 Mostly Cloudy 45 7.2 41 5 86 86 NE 3 6 30.3 1026 10 16.0934 N/A
9:35 pm 21:35 Cloudy 45 7 41 4.8 86 86 NNE 6 9 30.33 1027 10 16.0934 N/A
9:55 pm 21:55 Cloudy 45 7.1 40 4.7 85 85 NNE 5 7 30.33 1027 10 16.0934 N/A
10:15 pm 22:15 Cloudy 44 6.7 40 4.7 87 87 N N/A 30.33 1027 10 16.0934 N/A
10:35 pm 22:35 Cloudy 43 6.2 40 4.5 89 89 N N/A 30.36 1028 10 16.0934 N/A
10:55 pm 22:55 Partly Cloudy 43 6.1 40 4.4 89 89 W 3 6 30.39 1029 10 16.0934 N/A
11:15 pm 23:15 Clear 42 5.3 38 3.5 88 88 N N/A 30.39 1029 10 16.0934 N/A
11:35 pm 23:35 Clear 42 5.4 39 3.9 90 90 W 3 6 30.39 1029 10 16.0934 N/A
11:55 pm 23:55 Clear 39 4 37 2.6 91 91 W 3 6 30.39 1029 10 16.0934 N/A

Powered by AerisWeather